Time,TemperatureF,DewpointF,PressureIn,WindDirection,WindDirectionDegrees,WindSpeedMPH,WindSpeedGustMPH,Humidity,HourlyPrecipIn,Conditions,Clouds,dailyrainin,SoftwareType,DateUTC
2013-08-03 00:01:00,73.1,66.7,29.98,South,180,0.0,0.0,80,0.00,,,0.00,WUHU21623XXSP,2013-08-03 05:01:00,
2013-08-03 00:06:00,72.9,66.5,29.97,SSW,202,0.0,0.0,80,0.00,,,0.00,WUHU21623XXSP,2013-08-03 05:06:00,
2013-08-03 00:11:00,72.9,66.5,29.98,SSE,157,0.0,0.0,80,0.00,,,0.00,WUHU21623XXSP,2013-08-03 05:11:00,
2013-08-03 00:16:00,72.8,66.4,29.97,South,180,0.0,0.0,80,0.00,,,0.00,WUHU21623XXSP,2013-08-03 05:16:00,
2013-08-03 00:21:00,72.8,66.4,29.97,SSW,202,0.0,0.0,80,0.00,,,0.00,WUHU21623XXSP,2013-08-03 05:21:00,
2013-08-03 00:26:00,72.8,66.4,29.97,South,180,0.9,0.9,80,0.00,,,0.00,WUHU21623XXSP,2013-08-03 05:26:00,
2013-08-03 00:31:00,72.8,66.4,29.97,South,180,0.0,2.5,80,0.00,,,0.00,WUHU21623XXSP,2013-08-03 05:31:00,
2013-08-03 00:36:00,72.9,66.5,29.97,South,180,3.4,3.4,80,0.00,,,0.00,WUHU21623XXSP,2013-08-03 05:36:00,
2013-08-03 00:41:00,73.1,66.3,29.98,SSW,202,0.0,3.4,79,0.00,,,0.00,WUHU21623XXSP,2013-08-03 05:41:00,
2013-08-03 00:46:00,73.1,66.3,29.98,SSW,202,0.0,1.1,79,0.00,,,0.00,WUHU21623XXSP,2013-08-03 05:46:00,
2013-08-03 00:51:00,73.1,65.9,29.98,SSW,202,0.0,0.0,78,0.00,,,0.00,WUHU21623XXSP,2013-08-03 05:51:00,
2013-08-03 00:56:00,72.9,65.8,29.98,SSW,202,0.0,0.0,78,0.00,,,0.00,WUHU21623XXSP,2013-08-03 05:56:00,
2013-08-03 01:01:00,72.9,66.1,29.98,SSW,202,0.0,0.0,79,0.00,,,0.00,WUHU21623XXSP,2013-08-03 06:01:00,
2013-08-03 01:06:00,72.6,65.8,29.98,South,180,0.0,0.0,79,0.00,,,0.00,WUHU21623XXSP,2013-08-03 06:06:00,
2013-08-03 01:12:00,72.4,65.6,29.98,South,180,0.0,0.0,79,0.00,,,0.00,WUHU21623XXSP,2013-08-03 06:12:00,
2013-08-03 01:17:00,72.2,65.8,29.98,South,180,0.0,0.0,80,0.00,,,0.00,WUHU21623XXSP,2013-08-03 06:17:00,
2013-08-03 01:22:00,72.0,65.6,29.98,South,180,0.0,0.0,80,0.00,,,0.00,WUHU21623XXSP,2013-08-03 06:22:00,
2013-08-03 01:27:00,71.7,64.9,29.98,South,180,0.0,0.0,79,0.00,,,0.00,WUHU21623XXSP,2013-08-03 06:27:00,
2013-08-03 01:32:00,71.5,65.1,29.98,South,180,0.0,0.0,80,0.00,,,0.00,WUHU21623XXSP,2013-08-03 06:32:00,
2013-08-03 01:37:00,71.3,65.2,29.98,South,180,0.0,0.0,81,0.00,,,0.00,WUHU21623XXSP,2013-08-03 06:37:00,
2013-08-03 01:42:00,71.1,65.0,29.97,South,180,0.0,0.0,81,0.00,,,0.00,WUHU21623XXSP,2013-08-03 06:42:00,
2013-08-03 01:47:00,71.1,65.0,29.97,South,180,0.0,0.0,81,0.00,,,0.00,WUHU21623XXSP,2013-08-03 06:47:00,
2013-08-03 01:52:00,71.0,65.3,29.97,SSW,202,0.0,0.0,82,0.00,,,0.00,WUHU21623XXSP,2013-08-03 06:52:00,
2013-08-03 01:57:00,71.1,65.7,29.97,South,180,2.9,2.9,83,0.00,,,0.00,WUHU21623XXSP,2013-08-03 06:57:00,
2013-08-03 02:02:00,71.3,65.9,29.97,SSE,157,1.1,2.9,83,0.00,,,0.00,WUHU21623XXSP,2013-08-03 07:02:00,
2013-08-03 02:07:00,71.7,66.3,29.97,SSE,157,0.0,3.1,83,0.00,,,0.00,WUHU21623XXSP,2013-08-03 07:07:00,
2013-08-03 02:12:00,71.9,66.5,29.97,South,180,0.0,3.1,83,0.00,,,0.00,WUHU21623XXSP,2013-08-03 07:12:00,
2013-08-03 02:17:00,72.0,66.3,29.97,SSE,157,0.0,0.0,82,0.00,,,0.00,WUHU21623XXSP,2013-08-03 07:17:00,
2013-08-03 02:22:00,72.0,66.3,29.98,SSE,157,0.0,0.0,82,0.00,,,0.00,WUHU21623XXSP,2013-08-03 07:22:00,
2013-08-03 02:27:00,71.7,66.0,29.98,SSE,157,0.0,0.0,82,0.00,,,0.00,WUHU21623XXSP,2013-08-03 07:27:00,
2013-08-03 02:32:00,71.7,66.0,29.98,SSE,157,0.0,0.0,82,0.00,,,0.00,WUHU21623XXSP,2013-08-03 07:32:00,
2013-08-03 02:37:00,71.5,65.8,29.97,SSE,157,0.0,0.0,82,0.00,,,0.00,WUHU21623XXSP,2013-08-03 07:37:00,
2013-08-03 02:42:00,71.3,65.9,29.98,SSE,157,0.0,0.0,83,0.00,,,0.00,WUHU21623XXSP,2013-08-03 07:42:00,
2013-08-03 02:47:00,71.3,65.9,29.98,SSE,157,0.0,0.0,83,0.00,,,0.00,WUHU21623XXSP,2013-08-03 07:47:00,
2013-08-03 02:52:00,71.3,65.9,29.97,SSE,157,0.0,0.0,83,0.00,,,0.00,WUHU21623XXSP,2013-08-03 07:52:00,
2013-08-03 02:57:00,71.3,65.9,29.98,SSE,157,0.0,0.0,83,0.00,,,0.00,WUHU21623XXSP,2013-08-03 07:57:00,
2013-08-03 03:02:00,71.3,65.9,29.97,SSE,157,0.0,0.0,83,0.00,,,0.00,WUHU21623XXSP,2013-08-03 08:02:00,
2013-08-03 03:07:00,71.3,65.9,29.97,SSE,157,0.0,0.0,83,0.00,,,0.00,WUHU21623XXSP,2013-08-03 08:07:00,
2013-08-03 03:12:00,71.3,65.9,29.97,SSE,157,0.0,0.0,83,0.00,,,0.00,WUHU21623XXSP,2013-08-03 08:12:00,
2013-08-03 03:17:00,71.3,65.9,29.97,SSE,157,0.0,0.0,83,0.00,,,0.00,WUHU21623XXSP,2013-08-03 08:17:00,
2013-08-03 03:22:00,71.5,66.1,29.97,South,180,0.0,0.0,83,0.00,,,0.00,WUHU21623XXSP,2013-08-03 08:22:00,
2013-08-03 03:27:00,71.7,66.3,29.96,SSW,202,0.0,0.0,83,0.00,,,0.00,WUHU21623XXSP,2013-08-03 08:27:00,
2013-08-03 03:32:00,72.0,66.3,29.96,South,180,2.9,2.9,82,0.00,,,0.00,WUHU21623XXSP,2013-08-03 08:32:00,
2013-08-03 03:37:00,72.2,66.5,29.97,SSE,157,0.0,2.9,82,0.00,,,0.00,WUHU21623XXSP,2013-08-03 08:37:00,
2013-08-03 03:42:00,72.2,66.5,29.97,South,180,0.0,0.0,82,0.00,,,0.00,WUHU21623XXSP,2013-08-03 08:42:00,
2013-08-03 03:47:00,72.2,66.5,29.97,SE,135,0.0,0.0,82,0.00,,,0.00,WUHU21623XXSP,2013-08-03 08:47:00,
2013-08-03 03:52:00,72.2,66.5,29.97,South,180,0.0,0.0,82,0.00,,,0.00,WUHU21623XXSP,2013-08-03 08:52:00,
2013-08-03 03:57:00,72.2,66.5,29.97,South,180,0.0,0.0,82,0.00,,,0.00,WUHU21623XXSP,2013-08-03 08:57:00,
2013-08-03 04:02:00,72.2,66.5,29.97,SSE,157,0.0,0.0,82,0.00,,,0.00,WUHU21623XXSP,2013-08-03 09:02:00,
2013-08-03 04:07:00,72.2,66.5,29.97,South,180,0.0,1.8,82,0.00,,,0.00,WUHU21623XXSP,2013-08-03 09:07:00,
2013-08-03 04:12:00,72.2,66.1,29.96,SSW,202,5.8,5.8,81,0.00,,,0.00,WUHU21623XXSP,2013-08-03 09:12:00,
2013-08-03 04:17:00,72.4,66.3,29.97,South,180,5.1,5.8,81,0.00,,,0.00,WUHU21623XXSP,2013-08-03 09:17:00,
2013-08-03 04:22:00,72.4,66.3,29.97,South,180,0.0,5.1,81,0.00,,,0.00,WUHU21623XXSP,2013-08-03 09:22:00,
2013-08-03 04:27:00,72.4,66.3,29.97,SSW,202,1.6,2.2,81,0.00,,,0.00,WUHU21623XXSP,2013-08-03 09:27:00,
2013-08-03 04:32:00,72.4,66.3,29.97,SSE,157,0.0,1.6,81,0.00,,,0.00,WUHU21623XXSP,2013-08-03 09:32:00,
2013-08-03 04:37:00,72.2,66.5,29.96,South,180,0.4,2.0,82,0.00,,,0.00,WUHU21623XXSP,2013-08-03 09:37:00,
2013-08-03 04:42:00,72.2,66.5,29.96,South,180,9.4,9.4,82,0.00,,,0.00,WUHU21623XXSP,2013-08-03 09:42:00,
2013-08-03 04:47:00,72.2,66.5,29.96,SSE,157,3.8,9.4,82,0.00,,,0.00,WUHU21623XXSP,2013-08-03 09:47:00,
2013-08-03 04:52:00,72.2,66.5,29.96,South,180,3.8,3.8,82,0.00,,,0.00,WUHU21623XXSP,2013-08-03 09:52:00,
2013-08-03 04:57:00,72.2,66.5,29.95,South,180,3.8,3.8,82,0.00,,,0.00,WUHU21623XXSP,2013-08-03 09:57:00,
2013-08-03 05:02:00,72.2,66.5,29.96,SSE,157,0.0,3.8,82,0.00,,,0.00,WUHU21623XXSP,2013-08-03 10:02:00,
2013-08-03 05:07:00,72.0,66.3,29.96,SSE,157,0.0,5.1,82,0.00,,,0.00,WUHU21623XXSP,2013-08-03 10:07:00,
2013-08-03 05:12:00,72.0,66.3,29.97,SSE,157,0.0,5.1,82,0.00,,,0.00,WUHU21623XXSP,2013-08-03 10:12:00,
2013-08-03 05:17:00,72.0,66.3,29.96,SSE,157,1.6,1.6,82,0.00,,,0.00,WUHU21623XXSP,2013-08-03 10:17:00,
2013-08-03 05:22:00,72.0,66.3,29.96,SSE,157,0.0,1.6,82,0.00,,,0.00,WUHU21623XXSP,2013-08-03 10:22:00,
2013-08-03 05:27:00,72.0,66.3,29.96,South,180,7.2,7.2,82,0.00,,,0.00,WUHU21623XXSP,2013-08-03 10:27:00,
2013-08-03 05:32:00,72.0,66.3,29.96,South,180,7.2,7.2,82,0.00,,,0.00,WUHU21623XXSP,2013-08-03 10:32:00,
2013-08-03 05:37:00,72.0,66.3,29.95,SSW,202,7.2,7.2,82,0.00,,,0.00,WUHU21623XXSP,2013-08-03 10:37:00,
2013-08-03 05:42:00,72.0,66.3,29.95,SSW,202,2.0,7.2,82,0.00,,,0.00,WUHU21623XXSP,2013-08-03 10:42:00,
2013-08-03 05:47:00,72.0,66.3,29.95,South,180,3.8,4.7,82,0.00,,,0.00,WUHU21623XXSP,2013-08-03 10:47:00,
2013-08-03 05:52:00,71.9,66.2,29.95,South,180,5.1,5.1,82,0.00,,,0.00,WUHU21623XXSP,2013-08-03 10:52:00,
2013-08-03 05:57:00,71.9,66.2,29.95,South,180,2.9,5.1,82,0.00,,,0.00,WUHU21623XXSP,2013-08-03 10:57:00,
2013-08-03 06:02:00,71.9,66.2,29.94,South,180,0.0,2.9,82,0.00,,,0.00,WUHU21623XXSP,2013-08-03 11:02:00,
2013-08-03 06:07:00,71.9,66.2,29.95,SSE,157,0.0,1.3,82,0.00,,,0.00,WUHU21623XXSP,2013-08-03 11:07:00,
2013-08-03 06:12:00,72.0,66.3,29.95,SSE,157,0.4,1.8,82,0.00,,,0.00,WUHU21623XXSP,2013-08-03 11:12:00,
2013-08-03 06:17:00,72.0,66.3,29.95,South,180,4.0,4.0,82,0.00,,,0.00,WUHU21623XXSP,2013-08-03 11:17:00,
2013-08-03 06:22:00,72.0,66.3,29.95,South,180,2.9,4.0,82,0.00,,,0.00,WUHU21623XXSP,2013-08-03 11:22:00,
2013-08-03 06:27:00,72.2,66.5,29.96,SSW,202,3.1,4.3,82,0.00,,,0.00,WUHU21623XXSP,2013-08-03 11:27:00,
2013-08-03 06:32:00,72.2,66.5,29.96,SW,225,3.8,4.3,82,0.00,,,0.00,WUHU21623XXSP,2013-08-03 11:32:00,
2013-08-03 06:37:00,72.4,66.7,29.97,South,180,3.4,3.8,82,0.00,,,0.00,WUHU21623XXSP,2013-08-03 11:37:00,
2013-08-03 06:42:00,72.6,66.5,29.97,South,180,0.9,3.8,81,0.00,,,0.00,WUHU21623XXSP,2013-08-03 11:42:00,
2013-08-03 06:47:00,72.8,66.7,29.97,South,180,2.5,3.4,81,0.00,,,0.00,WUHU21623XXSP,2013-08-03 11:47:00,
2013-08-03 06:52:00,72.9,66.8,29.97,South,180,1.3,2.5,81,0.00,,,0.00,WUHU21623XXSP,2013-08-03 11:52:00,
2013-08-03 06:57:00,73.1,67.0,29.97,SSW,202,1.3,1.3,81,0.00,,,0.00,WUHU21623XXSP,2013-08-03 11:57:00,
2013-08-03 07:02:00,73.1,67.0,29.97,SSW,202,0.0,1.3,81,0.00,,,0.00,WUHU21623XXSP,2013-08-03 12:02:00,
2013-08-03 07:07:00,73.3,67.2,29.97,SW,225,1.6,1.6,81,0.00,,,0.00,WUHU21623XXSP,2013-08-03 12:07:00,
2013-08-03 07:12:00,73.5,67.4,29.97,SSW,202,2.9,2.9,81,0.00,,,0.00,WUHU21623XXSP,2013-08-03 12:12:00,
2013-08-03 07:17:00,73.5,67.4,29.97,SSW,202,2.9,2.9,81,0.00,,,0.00,WUHU21623XXSP,2013-08-03 12:17:00,
2013-08-03 07:22:00,73.7,67.6,29.98,SSE,157,0.0,2.9,81,0.00,,,0.00,WUHU21623XXSP,2013-08-03 12:22:00,
2013-08-03 07:27:00,73.8,67.7,29.98,SSW,202,0.0,0.9,81,0.00,,,0.00,WUHU21623XXSP,2013-08-03 12:27:00,
2013-08-03 07:32:00,73.8,67.7,29.98,SSE,157,2.5,2.5,81,0.00,,,0.00,WUHU21623XXSP,2013-08-03 12:32:00,
2013-08-03 07:37:00,73.8,67.7,29.98,South,180,2.5,3.1,81,0.00,,,0.00,WUHU21623XXSP,2013-08-03 12:37:00,
2013-08-03 07:42:00,73.8,67.7,29.98,SSW,202,4.9,4.9,81,0.00,,,0.00,WUHU21623XXSP,2013-08-03 12:42:00,
2013-08-03 07:47:00,73.8,67.3,29.98,South,180,2.7,5.6,80,0.00,,,0.00,WUHU21623XXSP,2013-08-03 12:47:00,
2013-08-03 07:52:00,74.0,67.9,29.98,SW,225,4.7,5.6,81,0.00,,,0.00,WUHU21623XXSP,2013-08-03 12:52:00,
2013-08-03 07:57:00,74.0,67.9,29.98,SW,225,4.7,4.7,81,0.00,,,0.00,WUHU21623XXSP,2013-08-03 12:57:00,
2013-08-03 08:02:00,74.0,67.9,29.99,South,180,1.8,4.7,81,0.00,,,0.00,WUHU21623XXSP,2013-08-03 13:02:00,
2013-08-03 08:07:00,74.0,67.9,29.99,South,180,4.7,5.1,81,0.00,,,0.00,WUHU21623XXSP,2013-08-03 13:07:00,
2013-08-03 08:12:00,74.0,67.9,29.99,SW,225,2.9,5.1,81,0.00,,,0.00,WUHU21623XXSP,2013-08-03 13:12:00,
2013-08-03 08:17:00,74.0,67.9,29.99,South,180,0.0,4.0,81,0.00,,,0.00,WUHU21623XXSP,2013-08-03 13:17:00,
2013-08-03 08:22:00,74.0,67.9,30.00,North,0,0.0,2.9,81,0.00,,,0.00,WUHU21623XXSP,2013-08-03 13:22:00,
2013-08-03 08:27:00,74.0,67.9,30.00,NNE,22,0.0,0.0,81,0.00,,,0.00,WUHU21623XXSP,2013-08-03 13:27:00,
2013-08-03 08:32:00,74.0,67.9,30.01,North,0,0.0,0.0,81,0.00,,,0.00,WUHU21623XXSP,2013-08-03 13:32:00,
2013-08-03 08:37:00,73.8,67.7,30.02,North,0,0.0,1.1,81,0.00,,,0.00,WUHU21623XXSP,2013-08-03 13:37:00,
2013-08-03 08:42:00,73.8,67.7,30.03,NW,315,0.0,4.0,81,0.00,,,0.00,WUHU21623XXSP,2013-08-03 13:42:00,
2013-08-03 08:47:00,73.8,68.0,30.03,NNW,337,3.8,4.0,82,0.00,,,0.00,WUHU21623XXSP,2013-08-03 13:47:00,
2013-08-03 08:52:00,73.3,67.5,30.03,NNE,22,0.0,3.8,82,0.00,,,0.00,WUHU21623XXSP,2013-08-03 13:52:00,
2013-08-03 08:57:00,73.1,67.7,30.03,ESE,112,0.0,0.4,83,0.00,,,0.00,WUHU21623XXSP,2013-08-03 13:57:00,
2013-08-03 09:02:00,72.9,67.5,30.03,SSW,202,0.0,0.0,83,0.02,,,0.02,WUHU21623XXSP,2013-08-03 14:02:00,
2013-08-03 09:07:00,72.2,67.1,30.02,SSE,157,4.9,4.9,84,0.08,,,0.08,WUHU21623XXSP,2013-08-03 14:07:00,
2013-08-03 09:12:00,72.2,67.1,30.03,West,270,0.0,4.9,84,0.08,,,0.08,WUHU21623XXSP,2013-08-03 14:12:00,
2013-08-03 09:17:00,72.2,67.5,30.03,North,0,0.0,0.0,85,0.10,,,0.10,WUHU21623XXSP,2013-08-03 14:17:00,
2013-08-03 09:22:00,72.2,67.5,30.02,NW,315,0.0,0.0,85,0.10,,,0.10,WUHU21623XXSP,2013-08-03 14:22:00,
2013-08-03 09:27:00,72.2,67.8,30.02,West,270,0.0,0.7,86,0.12,,,0.12,WUHU21623XXSP,2013-08-03 14:27:00,
2013-08-03 09:32:00,72.4,68.0,30.03,NNW,337,0.0,0.7,86,0.12,,,0.12,WUHU21623XXSP,2013-08-03 14:32:00,
2013-08-03 09:37:00,72.6,68.5,30.03,WNW,292,0.0,0.0,87,0.12,,,0.12,WUHU21623XXSP,2013-08-03 14:37:00,
2013-08-03 09:42:00,72.8,68.7,30.03,SW,225,0.0,0.0,87,0.14,,,0.14,WUHU21623XXSP,2013-08-03 14:42:00,
2013-08-03 09:47:00,72.9,68.8,30.03,SW,225,0.0,0.0,87,0.16,,,0.16,WUHU21623XXSP,2013-08-03 14:47:00,
2013-08-03 09:52:00,72.9,68.8,30.03,WSW,247,2.0,2.0,87,0.18,,,0.18,WUHU21623XXSP,2013-08-03 14:52:00,
2013-08-03 09:57:00,73.1,69.0,30.03,SW,225,1.6,2.0,87,0.18,,,0.18,WUHU21623XXSP,2013-08-03 14:57:00,
2013-08-03 10:02:00,73.3,69.2,30.03,SW,225,0.0,2.5,87,0.14,,,0.20,WUHU21623XXSP,2013-08-03 15:02:00,
2013-08-03 10:07:00,73.5,69.7,30.03,SSW,202,6.3,6.3,88,0.12,,,0.20,WUHU21623XXSP,2013-08-03 15:07:00,
2013-08-03 10:12:00,73.5,69.7,30.03,SW,225,6.7,6.7,88,0.12,,,0.20,WUHU21623XXSP,2013-08-03 15:12:00,
2013-08-03 10:17:00,73.5,69.7,30.03,SSW,202,2.9,6.7,88,0.10,,,0.20,WUHU21623XXSP,2013-08-03 15:17:00,
2013-08-03 10:22:00,73.8,70.0,30.03,WSW,247,0.0,6.7,88,0.08,,,0.20,WUHU21623XXSP,2013-08-03 15:22:00,
2013-08-03 10:27:00,73.7,69.9,30.03,West,270,0.0,0.0,88,0.08,,,0.20,WUHU21623XXSP,2013-08-03 15:27:00,
2013-08-03 10:32:00,73.8,70.0,30.04,North,0,0.0,0.0,88,0.08,,,0.20,WUHU21623XXSP,2013-08-03 15:32:00,
2013-08-03 10:37:00,74.0,70.2,30.04,North,0,0.0,0.0,88,0.08,,,0.20,WUHU21623XXSP,2013-08-03 15:37:00,
2013-08-03 10:42:00,74.0,70.2,30.05,NE,45,0.0,0.0,88,0.08,,,0.22,WUHU21623XXSP,2013-08-03 15:42:00,
2013-08-03 10:47:00,73.8,70.0,30.05,ESE,112,0.0,0.0,88,0.04,,,0.22,WUHU21623XXSP,2013-08-03 15:47:00,
2013-08-03 10:52:00,74.0,70.2,30.05,East,90,0.0,0.0,88,0.06,,,0.24,WUHU21623XXSP,2013-08-03 15:52:00,
2013-08-03 10:57:00,74.0,70.2,30.05,NE,45,0.0,0.0,88,0.04,,,0.24,WUHU21623XXSP,2013-08-03 15:57:00,
2013-08-03 11:02:00,74.0,70.2,30.06,NE,45,0.0,1.1,88,0.06,,,0.26,WUHU21623XXSP,2013-08-03 16:02:00,
2013-08-03 11:07:00,74.4,70.9,30.06,NNE,22,0.0,1.1,89,0.11,,,0.31,WUHU21623XXSP,2013-08-03 16:07:00,
2013-08-03 11:13:00,74.4,70.9,30.06,WNW,292,0.0,0.0,89,0.11,,,0.31,WUHU21623XXSP,2013-08-03 16:13:00,
2013-08-03 11:18:00,74.9,71.4,30.07,SSW,202,1.3,1.3,89,0.11,,,0.31,WUHU21623XXSP,2013-08-03 16:18:00,
2013-08-03 11:23:00,75.1,71.6,30.07,SW,225,0.7,1.3,89,0.11,,,0.31,WUHU21623XXSP,2013-08-03 16:23:00,
2013-08-03 11:27:00,75.6,72.1,30.07,SW,225,4.5,4.5,89,0.11,,,0.31,WUHU21623XXSP,2013-08-03 16:27:00,
2013-08-03 11:32:00,75.6,72.1,30.07,South,180,0.0,4.5,89,0.11,,,0.31,WUHU21623XXSP,2013-08-03 16:32:00,
2013-08-03 11:38:00,75.8,72.3,30.07,SSW,202,0.0,0.0,89,0.11,,,0.31,WUHU21623XXSP,2013-08-03 16:38:00,
2013-08-03 11:43:00,75.8,72.3,30.07,SSW,202,0.0,0.0,89,0.11,,,0.33,WUHU21623XXSP,2013-08-03 16:43:00,
2013-08-03 11:47:00,76.2,72.7,30.07,WNW,292,0.0,0.0,89,0.09,,,0.33,WUHU21623XXSP,2013-08-03 16:47:00,
2013-08-03 11:53:00,76.5,73.0,30.06,West,270,0.0,0.0,89,0.09,,,0.33,WUHU21623XXSP,2013-08-03 16:53:00,
2013-08-03 11:57:00,76.7,72.9,30.06,North,0,1.6,1.6,88,0.07,,,0.33,WUHU21623XXSP,2013-08-03 16:57:00,
2013-08-03 12:03:00,76.9,73.1,30.06,NW,315,0.0,2.2,88,0.04,,,0.33,WUHU21623XXSP,2013-08-03 17:03:00,
2013-08-03 12:08:00,77.1,73.3,30.07,NW,315,0.0,4.0,88,0.02,,,0.33,WUHU21623XXSP,2013-08-03 17:08:00,
2013-08-03 12:13:00,77.1,73.0,30.07,NW,315,4.5,4.5,87,0.02,,,0.33,WUHU21623XXSP,2013-08-03 17:13:00,
2013-08-03 12:17:00,77.1,73.0,30.07,WNW,292,4.0,4.5,87,0.02,,,0.33,WUHU21623XXSP,2013-08-03 17:17:00,
2013-08-03 12:23:00,77.3,73.1,30.08,WNW,292,1.3,4.0,87,0.02,,,0.33,WUHU21623XXSP,2013-08-03 17:23:00,
2013-08-03 12:28:00,77.4,73.2,30.09,WNW,292,0.0,3.4,87,0.02,,,0.33,WUHU21623XXSP,2013-08-03 17:28:00,
2013-08-03 12:33:00,77.6,73.4,30.10,WSW,247,0.0,3.8,87,0.02,,,0.33,WUHU21623XXSP,2013-08-03 17:33:00,
2013-08-03 12:38:00,77.4,73.2,30.10,WNW,292,0.0,4.7,87,0.02,,,0.33,WUHU21623XXSP,2013-08-03 17:38:00,
2013-08-03 12:43:00,77.1,72.6,30.10,West,270,9.4,9.4,86,0.00,,,0.33,WUHU21623XXSP,2013-08-03 17:43:00,
2013-08-03 12:48:00,76.7,72.2,30.09,NW,315,11.2,11.2,86,0.00,,,0.33,WUHU21623XXSP,2013-08-03 17:48:00,
2013-08-03 12:53:00,76.5,72.0,30.08,WNW,292,0.9,11.2,86,0.00,,,0.33,WUHU21623XXSP,2013-08-03 17:53:00,
2013-08-03 12:58:00,76.4,71.9,30.08,WNW,292,3.4,7.4,86,0.00,,,0.33,WUHU21623XXSP,2013-08-03 17:58:00,
2013-08-03 13:03:00,76.5,71.7,30.08,West,270,0.0,5.1,85,0.00,,,0.33,WUHU21623XXSP,2013-08-03 18:03:00,
2013-08-03 13:08:00,76.7,71.9,30.07,WNW,292,0.0,0.7,85,0.00,,,0.33,WUHU21623XXSP,2013-08-03 18:08:00,
2013-08-03 13:13:00,76.9,72.1,30.07,WSW,247,0.0,0.0,85,0.00,,,0.33,WUHU21623XXSP,2013-08-03 18:13:00,
2013-08-03 13:18:00,77.1,72.3,30.07,SW,225,0.0,0.0,85,0.00,,,0.33,WUHU21623XXSP,2013-08-03 18:18:00,
2013-08-03 13:23:00,77.1,72.3,30.07,SW,225,0.0,0.0,85,0.00,,,0.33,WUHU21623XXSP,2013-08-03 18:23:00,
2013-08-03 13:28:00,77.1,72.3,30.06,SW,225,0.0,0.0,85,0.00,,,0.33,WUHU21623XXSP,2013-08-03 18:28:00,
2013-08-03 13:33:00,77.3,72.5,30.06,WSW,247,0.0,0.0,85,0.00,,,0.33,WUHU21623XXSP,2013-08-03 18:33:00,
2013-08-03 13:38:00,77.4,72.6,30.06,NW,315,0.0,0.0,85,0.00,,,0.33,WUHU21623XXSP,2013-08-03 18:38:00,
2013-08-03 13:43:00,77.6,72.8,30.06,NNW,337,0.0,0.0,85,0.00,,,0.33,WUHU21623XXSP,2013-08-03 18:43:00,
2013-08-03 13:48:00,77.6,72.4,30.06,NNW,337,0.0,0.0,84,0.00,,,0.33,WUHU21623XXSP,2013-08-03 18:48:00,
2013-08-03 13:53:00,77.6,72.4,30.06,North,0,1.1,1.1,84,0.00,,,0.33,WUHU21623XXSP,2013-08-03 18:53:00,
2013-08-03 13:58:00,77.6,72.4,30.05,North,0,1.1,1.1,84,0.00,,,0.33,WUHU21623XXSP,2013-08-03 18:58:00,
2013-08-03 14:03:00,77.6,72.4,30.05,North,0,3.1,3.1,84,0.00,,,0.33,WUHU21623XXSP,2013-08-03 19:03:00,
2013-08-03 14:08:00,77.6,72.4,30.05,NE,45,0.0,3.1,84,0.00,,,0.33,WUHU21623XXSP,2013-08-03 19:08:00,
2013-08-03 14:13:00,77.6,72.4,30.05,ENE,67,0.0,2.5,84,0.00,,,0.33,WUHU21623XXSP,2013-08-03 19:13:00,
2013-08-03 14:18:00,77.6,72.4,30.05,NE,45,0.0,0.0,84,0.00,,,0.33,WUHU21623XXSP,2013-08-03 19:18:00,
2013-08-03 14:23:00,77.6,72.4,30.05,NE,45,0.0,0.0,84,0.00,,,0.33,WUHU21623XXSP,2013-08-03 19:23:00,
2013-08-03 14:28:00,77.6,72.4,30.04,NE,45,0.0,0.0,84,0.00,,,0.33,WUHU21623XXSP,2013-08-03 19:28:00,
2013-08-03 14:33:00,77.6,72.4,30.04,NE,45,0.0,0.0,84,0.00,,,0.33,WUHU21623XXSP,2013-08-03 19:33:00,
2013-08-03 14:38:00,77.6,72.4,30.03,NE,45,0.0,0.0,84,0.02,,,0.35,WUHU21623XXSP,2013-08-03 19:38:00,
2013-08-03 14:43:00,77.6,72.4,30.03,ENE,67,0.7,0.7,84,0.02,,,0.35,WUHU21623XXSP,2013-08-03 19:43:00,
2013-08-03 14:48:00,77.4,72.2,30.02,NE,45,1.6,1.6,84,0.02,,,0.35,WUHU21623XXSP,2013-08-03 19:48:00,
2013-08-03 14:53:00,77.4,72.2,30.02,NNE,22,2.9,4.5,84,0.02,,,0.35,WUHU21623XXSP,2013-08-03 19:53:00,
2013-08-03 14:58:00,77.1,71.9,30.02,NE,45,1.8,4.5,84,0.02,,,0.35,WUHU21623XXSP,2013-08-03 19:58:00,
2013-08-03 15:03:00,77.1,71.9,30.02,NE,45,1.8,1.8,84,0.02,,,0.35,WUHU21623XXSP,2013-08-03 20:03:00,
2013-08-03 15:08:00,77.1,72.3,30.01,NE,45,0.4,1.8,85,0.02,,,0.35,WUHU21623XXSP,2013-08-03 20:08:00,
2013-08-03 15:13:00,77.1,72.3,30.00,ENE,67,3.4,3.4,85,0.02,,,0.35,WUHU21623XXSP,2013-08-03 20:13:00,
2013-08-03 15:18:00,77.1,72.3,29.99,ENE,67,1.6,4.0,85,0.02,,,0.35,WUHU21623XXSP,2013-08-03 20:18:00,
2013-08-03 15:23:00,76.9,72.1,29.98,East,90,3.6,4.0,85,0.02,,,0.35,WUHU21623XXSP,2013-08-03 20:23:00,
2013-08-03 15:28:00,76.9,72.4,29.98,East,90,2.9,4.0,86,0.02,,,0.35,WUHU21623XXSP,2013-08-03 20:28:00,
2013-08-03 15:33:00,76.7,72.2,29.97,ENE,67,0.0,4.0,86,0.00,,,0.35,WUHU21623XXSP,2013-08-03 20:33:00,
2013-08-03 15:38:00,76.9,72.4,29.97,NE,45,0.0,1.8,86,0.00,,,0.35,WUHU21623XXSP,2013-08-03 20:38:00,
2013-08-03 15:43:00,76.9,72.4,29.97,East,90,3.4,3.4,86,0.00,,,0.35,WUHU21623XXSP,2013-08-03 20:43:00,
2013-08-03 15:48:00,76.7,71.9,29.96,ENE,67,1.8,3.4,85,0.00,,,0.35,WUHU21623XXSP,2013-08-03 20:48:00,
2013-08-03 15:53:00,76.9,72.1,29.96,SE,135,0.0,1.8,85,0.00,,,0.35,WUHU21623XXSP,2013-08-03 20:53:00,
2013-08-03 15:58:00,76.9,72.1,29.97,NNE,22,1.1,1.6,85,0.00,,,0.35,WUHU21623XXSP,2013-08-03 20:58:00,
2013-08-03 16:03:00,77.1,71.9,29.97,NNE,22,3.1,4.7,84,0.00,,,0.35,WUHU21623XXSP,2013-08-03 21:03:00,
2013-08-03 16:08:00,77.4,72.2,29.97,NE,45,4.7,4.7,84,0.00,,,0.35,WUHU21623XXSP,2013-08-03 21:08:00,
2013-08-03 16:13:00,76.3,70.8,29.97,NE,45,3.4,5.4,83,0.00,,,0.35,WUHU21623XXSP,2013-08-03 21:13:00,
2013-08-03 16:18:00,76.3,70.8,29.97,ENE,67,0.0,5.4,83,0.00,,,0.35,WUHU21623XXSP,2013-08-03 21:18:00,
2013-08-03 16:23:00,76.5,71.4,29.97,NE,45,0.7,2.7,84,0.00,,,0.35,WUHU21623XXSP,2013-08-03 21:23:00,
2013-08-03 16:28:00,76.5,71.4,29.97,NNE,22,0.0,0.7,84,0.00,,,0.35,WUHU21623XXSP,2013-08-03 21:28:00,
2013-08-03 16:33:00,76.5,71.0,29.97,NNE,22,0.7,0.7,83,0.00,,,0.35,WUHU21623XXSP,2013-08-03 21:33:00,
2013-08-03 16:38:00,76.9,71.4,29.99,NE,45,0.0,0.7,83,0.00,,,0.35,WUHU21623XXSP,2013-08-03 21:38:00,
2013-08-03 16:43:00,77.2,71.7,29.99,West,270,0.0,0.4,83,0.00,,,0.35,WUHU21623XXSP,2013-08-03 21:43:00,
2013-08-03 16:48:00,77.4,71.9,30.01,WSW,247,4.7,4.7,83,0.00,,,0.35,WUHU21623XXSP,2013-08-03 21:48:00,
2013-08-03 16:53:00,77.4,71.9,30.02,WNW,292,6.0,6.0,83,0.00,,,0.35,WUHU21623XXSP,2013-08-03 21:53:00,
2013-08-03 16:58:00,77.2,71.7,30.02,SW,225,4.7,6.0,83,0.00,,,0.35,WUHU21623XXSP,2013-08-03 21:58:00,
2013-08-03 17:03:00,77.2,71.7,30.02,West,270,3.8,4.7,83,0.00,,,0.35,WUHU21623XXSP,2013-08-03 22:03:00,
2013-08-03 17:08:00,77.4,71.9,30.02,West,270,4.7,4.7,83,0.00,,,0.35,WUHU21623XXSP,2013-08-03 22:08:00,
2013-08-03 17:13:00,77.4,71.9,30.02,NW,315,1.3,4.7,83,0.00,,,0.35,WUHU21623XXSP,2013-08-03 22:13:00,
2013-08-03 17:18:00,77.4,71.9,30.02,WNW,292,0.0,1.6,83,0.00,,,0.35,WUHU21623XXSP,2013-08-03 22:18:00,
2013-08-03 17:23:00,77.6,71.7,30.03,West,270,0.0,0.0,82,0.00,,,0.35,WUHU21623XXSP,2013-08-03 22:23:00,
2013-08-03 17:28:00,77.8,71.9,30.03,West,270,4.0,4.0,82,0.00,,,0.35,WUHU21623XXSP,2013-08-03 22:28:00,
2013-08-03 17:33:00,77.8,71.9,30.03,SW,225,2.9,4.0,82,0.00,,,0.35,WUHU21623XXSP,2013-08-03 22:33:00,
2013-08-03 17:39:00,78.0,71.8,30.03,West,270,0.0,4.3,81,0.00,,,0.35,WUHU21623XXSP,2013-08-03 22:39:00,
2013-08-03 17:44:00,77.8,71.6,30.03,West,270,4.5,4.5,81,0.00,,,0.35,WUHU21623XXSP,2013-08-03 22:44:00,
2013-08-03 17:49:00,77.8,71.2,30.03,West,270,0.0,4.5,80,0.00,,,0.35,WUHU21623XXSP,2013-08-03 22:49:00,
2013-08-03 17:54:00,77.6,71.0,30.03,WNW,292,1.8,1.8,80,0.00,,,0.35,WUHU21623XXSP,2013-08-03 22:54:00,
2013-08-03 17:59:00,77.4,70.9,30.03,NW,315,3.8,3.8,80,0.00,,,0.35,WUHU21623XXSP,2013-08-03 22:59:00,
2013-08-03 18:04:00,77.4,70.9,30.03,WNW,292,1.8,3.8,80,0.00,,,0.35,WUHU21623XXSP,2013-08-03 23:04:00,
2013-08-03 18:09:00,77.4,70.9,30.03,WNW,292,0.9,1.8,80,0.00,,,0.35,WUHU21623XXSP,2013-08-03 23:09:00,
2013-08-03 18:13:00,77.2,70.7,30.03,NW,315,0.0,1.8,80,0.00,,,0.35,WUHU21623XXSP,2013-08-03 23:13:00,
2013-08-03 18:19:00,77.4,70.9,30.03,WSW,247,0.0,0.9,80,0.00,,,0.35,WUHU21623XXSP,2013-08-03 23:19:00,
2013-08-03 18:23:00,77.4,70.9,30.03,West,270,0.0,1.6,80,0.00,,,0.35,WUHU21623XXSP,2013-08-03 23:23:00,
2013-08-03 18:29:00,77.6,70.7,30.03,West,270,0.0,1.6,79,0.00,,,0.35,WUHU21623XXSP,2013-08-03 23:29:00,
2013-08-03 18:34:00,77.8,70.9,30.04,West,270,0.0,0.0,79,0.00,,,0.35,WUHU21623XXSP,2013-08-03 23:34:00,
2013-08-03 18:39:00,77.8,70.9,30.04,WNW,292,0.0,0.0,79,0.00,,,0.35,WUHU21623XXSP,2013-08-03 23:39:00,
2013-08-03 18:44:00,77.8,70.9,30.04,WNW,292,0.0,0.0,79,0.00,,,0.35,WUHU21623XXSP,2013-08-03 23:44:00,
2013-08-03 18:49:00,77.8,70.9,30.04,WNW,292,0.0,0.0,79,0.00,,,0.35,WUHU21623XXSP,2013-08-03 23:49:00,
2013-08-03 18:53:00,77.8,70.9,30.04,NW,315,0.0,0.0,79,0.00,,,0.35,WUHU21623XXSP,2013-08-03 23:53:00,
2013-08-03 18:59:00,77.8,70.9,30.04,West,270,0.0,0.0,79,0.00,,,0.35,WUHU21623XXSP,2013-08-03 23:59:00,
2013-08-03 19:04:00,78.0,71.1,30.04,WNW,292,0.0,0.0,79,0.00,,,0.35,WUHU21623XXSP,2013-08-04 00:04:00,
2013-08-03 19:08:00,78.1,71.2,30.04,WNW,292,0.0,0.0,79,0.00,,,0.35,WUHU21623XXSP,2013-08-04 00:08:00,
2013-08-03 19:14:00,78.1,71.2,30.04,West,270,0.0,0.0,79,0.00,,,0.35,WUHU21623XXSP,2013-08-04 00:14:00,
2013-08-03 19:19:00,78.1,71.2,30.05,WNW,292,0.0,0.0,79,0.00,,,0.35,WUHU21623XXSP,2013-08-04 00:19:00,
2013-08-03 19:24:00,78.1,71.2,30.04,WNW,292,0.0,0.0,79,0.00,,,0.35,WUHU21623XXSP,2013-08-04 00:24:00,
2013-08-03 19:29:00,78.1,71.2,30.04,West,270,0.0,0.0,79,0.00,,,0.35,WUHU21623XXSP,2013-08-04 00:29:00,
2013-08-03 19:34:00,77.8,70.9,30.04,West,270,0.0,0.0,79,0.00,,,0.35,WUHU21623XXSP,2013-08-04 00:34:00,
2013-08-03 19:39:00,77.6,70.7,30.04,West,270,0.0,0.0,79,0.00,,,0.35,WUHU21623XXSP,2013-08-04 00:39:00,
2013-08-03 19:44:00,77.4,70.5,30.05,West,270,0.0,0.0,79,0.00,,,0.35,WUHU21623XXSP,2013-08-04 00:44:00,
2013-08-03 19:49:00,77.4,70.5,30.05,West,270,0.0,0.0,79,0.00,,,0.35,WUHU21623XXSP,2013-08-04 00:49:00,
2013-08-03 19:54:00,77.1,70.6,30.04,West,270,0.0,0.0,80,0.00,,,0.35,WUHU21623XXSP,2013-08-04 00:54:00,
2013-08-03 19:59:00,76.5,70.0,30.05,SSW,202,0.0,0.0,80,0.00,,,0.35,WUHU21623XXSP,2013-08-04 00:59:00,
2013-08-03 20:03:00,76.3,70.1,30.04,SSW,202,0.0,0.0,81,0.00,,,0.35,WUHU21623XXSP,2013-08-04 01:03:00,
2013-08-03 20:09:00,75.6,69.4,30.04,South,180,0.0,0.0,81,0.00,,,0.35,WUHU21623XXSP,2013-08-04 01:09:00,
2013-08-03 20:14:00,75.3,69.5,30.04,SW,225,0.0,0.0,82,0.00,,,0.35,WUHU21623XXSP,2013-08-04 01:14:00,
2013-08-03 20:18:00,75.1,69.3,30.04,SW,225,0.0,0.0,82,0.00,,,0.35,WUHU21623XXSP,2013-08-04 01:18:00,
2013-08-03 20:24:00,74.7,68.9,30.04,SSW,202,0.0,0.0,82,0.00,,,0.35,WUHU21623XXSP,2013-08-04 01:24:00,
2013-08-03 20:29:00,74.5,69.1,30.04,SSW,202,0.0,0.0,83,0.00,,,0.35,WUHU21623XXSP,2013-08-04 01:29:00,
2013-08-03 20:34:00,74.2,68.8,30.05,SSW,202,0.0,0.0,83,0.00,,,0.35,WUHU21623XXSP,2013-08-04 01:34:00,
2013-08-03 20:39:00,74.0,68.9,30.05,SW,225,0.0,0.0,84,0.00,,,0.35,WUHU21623XXSP,2013-08-04 01:39:00,
2013-08-03 20:43:00,73.8,68.7,30.05,SW,225,0.0,0.0,84,0.00,,,0.35,WUHU21623XXSP,2013-08-04 01:43:00,
2013-08-03 20:49:00,73.8,68.7,30.05,SSW,202,0.0,0.0,84,0.00,,,0.35,WUHU21623XXSP,2013-08-04 01:49:00,
2013-08-03 20:54:00,73.6,68.5,30.05,SSW,202,0.0,0.0,84,0.00,,,0.35,WUHU21623XXSP,2013-08-04 01:54:00,
2013-08-03 20:59:00,73.6,68.8,30.05,South,180,0.0,0.0,85,0.00,,,0.35,WUHU21623XXSP,2013-08-04 01:59:00,
2013-08-03 21:04:00,73.5,68.7,30.05,South,180,0.0,0.0,85,0.00,,,0.35,WUHU21623XXSP,2013-08-04 02:04:00,
2013-08-03 21:08:00,73.3,68.6,30.06,South,180,0.0,0.0,85,0.00,,,0.35,WUHU21623XXSP,2013-08-04 02:08:00,
2013-08-03 21:14:00,73.3,68.6,30.06,South,180,0.0,0.0,85,0.00,,,0.35,WUHU21623XXSP,2013-08-04 02:14:00,
2013-08-03 21:19:00,72.9,68.5,30.06,South,180,0.0,0.0,86,0.00,,,0.35,WUHU21623XXSP,2013-08-04 02:19:00,
2013-08-03 21:24:00,75.5,70.7,30.06,South,180,0.0,0.0,85,0.00,,,0.35,WUHU21623XXSP,2013-08-04 02:24:00,
2013-08-03 21:29:00,75.4,70.6,30.06,North,0,0.0,0.0,85,0.00,,,0.35,WUHU21623XXSP,2013-08-04 02:29:00,
2013-08-03 21:35:00,75.2,70.4,30.07,South,180,0.0,0.0,85,0.00,,,0.35,WUHU21623XXSP,2013-08-04 02:35:00,
2013-08-03 21:40:00,75.2,70.4,30.06,South,180,0.0,0.0,85,0.00,,,0.35,WUHU21623XXSP,2013-08-04 02:40:00,
2013-08-03 21:45:00,74.8,70.4,30.06,North,0,0.0,0.0,86,0.00,,,0.35,WUHU21623XXSP,2013-08-04 02:45:00,
2013-08-03 21:51:00,74.6,70.2,30.07,South,180,0.0,0.0,86,0.00,,,0.35,WUHU21623XXSP,2013-08-04 02:51:00,
2013-08-03 21:56:00,74.6,70.2,30.06,North,0,0.0,0.0,86,0.00,,,0.35,WUHU21623XXSP,2013-08-04 02:56:00,
2013-08-03 22:01:00,74.3,69.9,30.07,WSW,247,0.0,0.0,86,0.00,,,0.35,WUHU21623XXSP,2013-08-04 03:01:00,
2013-08-03 22:07:00,74.3,69.9,30.07,North,0,0.0,0.0,86,0.00,,,0.35,WUHU21623XXSP,2013-08-04 03:07:00,
2013-08-03 22:12:00,74.1,69.7,30.07,WSW,247,0.0,0.0,86,0.00,,,0.35,WUHU21623XXSP,2013-08-04 03:12:00,
2013-08-03 22:17:00,73.9,69.5,30.06,North,0,0.0,0.0,86,0.00,,,0.35,WUHU21623XXSP,2013-08-04 03:17:00,
2013-08-03 22:22:00,73.9,69.5,30.07,WSW,247,0.0,0.0,86,0.00,,,0.35,WUHU21623XXSP,2013-08-04 03:22:00,
2013-08-03 22:28:00,73.9,69.8,30.07,North,0,0.0,0.0,87,0.00,,,0.35,WUHU21623XXSP,2013-08-04 03:28:00,
2013-08-03 22:33:00,73.7,69.6,30.07,WSW,247,0.0,0.0,87,0.00,,,0.35,WUHU21623XXSP,2013-08-04 03:33:00,
2013-08-03 22:38:00,73.7,69.6,30.08,North,0,0.0,0.0,87,0.00,,,0.35,WUHU21623XXSP,2013-08-04 03:38:00,
2013-08-03 22:44:00,73.7,69.6,30.07,WSW,247,0.0,0.0,87,0.00,,,0.35,WUHU21623XXSP,2013-08-04 03:44:00,
2013-08-03 22:49:00,73.7,69.6,30.07,North,0,0.0,0.0,87,0.00,,,0.35,WUHU21623XXSP,2013-08-04 03:49:00,
2013-08-03 22:54:00,73.7,69.9,30.07,WSW,247,0.0,0.0,88,0.00,,,0.35,WUHU21623XXSP,2013-08-04 03:54:00,
2013-08-03 23:00:00,73.7,69.9,30.07,North,0,0.0,0.0,88,0.00,,,0.35,WUHU21623XXSP,2013-08-04 04:00:00,
2013-08-03 23:01:00,73.7,69.9,30.07,WSW,247,0.0,0.0,88,0.00,,,0.35,WUHU21623XXSP,2013-08-04 04:01:00,
2013-08-03 23:04:00,73.7,69.9,30.08,North,0,0.0,0.0,88,0.00,,,0.35,WUHU21623XXSP,2013-08-04 04:04:00,
2013-08-03 23:08:00,73.7,69.9,30.08,WSW,247,0.0,0.0,88,0.00,,,0.35,WUHU21623XXSP,2013-08-04 04:08:00,
2013-08-03 23:13:00,73.7,69.9,30.08,North,0,0.0,0.0,88,0.00,,,0.35,WUHU21623XXSP,2013-08-04 04:13:00,
2013-08-03 23:16:00,73.7,69.9,30.08,WSW,247,0.0,0.0,88,0.00,,,0.35,WUHU21623XXSP,2013-08-04 04:16:00,
2013-08-03 23:21:00,73.7,69.9,30.08,North,0,0.0,0.0,88,0.00,,,0.35,WUHU21623XXSP,2013-08-04 04:21:00,
2013-08-03 23:27:00,73.7,69.9,30.08,WSW,247,0.0,0.0,88,0.00,,,0.35,WUHU21623XXSP,2013-08-04 04:27:00,
2013-08-03 23:33:00,73.7,69.9,30.08,WSW,247,0.0,0.0,88,0.00,,,0.35,WUHU21623XXSP,2013-08-04 04:33:00,
2013-08-03 23:39:00,73.7,69.9,30.08,North,0,0.0,0.0,88,0.00,,,0.35,WUHU21623XXSP,2013-08-04 04:39:00,
2013-08-03 23:44:00,73.6,69.8,30.08,WSW,247,0.0,0.0,88,0.00,,,0.35,WUHU21623XXSP,2013-08-04 04:44:00,
2013-08-03 23:49:00,73.4,69.6,30.08,North,0,0.0,0.0,88,0.00,,,0.35,WUHU21623XXSP,2013-08-04 04:49:00,
2013-08-03 23:54:00,73.4,69.6,30.08,WSW,247,0.0,0.0,88,0.00,,,0.35,WUHU21623XXSP,2013-08-04 04:54:00,